Time,TemperatureF,DewpointF,PressureIn,WindDirection,WindDirectionDegrees,WindSpeedMPH,WindSpeedGustMPH,Humidity,HourlyPrecipIn,Conditions,Clouds,dailyrainin,SolarRadiationWatts/m^2,SoftwareType,DateUTC
2013-02-15 00:02:00,38.8,38.3,30.06,North,0,2.0,4.0,98,0.00,RA,RA,0.00,0.0,WeatherDisplay:10.37,2013-02-14 23:02:00,
2013-02-15 00:07:00,38.8,38.3,30.06,North,6,2.0,4.0,98,0.00,RA,RA,0.00,0.0,WeatherDisplay:10.37,2013-02-14 23:07:00,
2013-02-15 00:12:00,38.8,38.3,30.06,North,4,1.0,4.0,98,0.00,CLR,CLR,0.00,0.0,WeatherDisplay:10.37,2013-02-14 23:12:00,
2013-02-15 00:22:00,38.7,38.1,30.06,North,7,2.0,2.0,98,0.00,CLR,CLR,0.00,0.0,WeatherDisplay:10.37,2013-02-14 23:22:00,
2013-02-15 00:27:00,38.7,38.1,30.06,North,7,1.0,2.0,98,0.00,CLR,CLR,0.00,0.0,WeatherDisplay:10.37,2013-02-14 23:27:00,
2013-02-15 00:32:00,38.7,38.1,30.06,North,8,1.0,3.0,98,0.00,CLR,CLR,0.00,0.0,WeatherDisplay:10.37,2013-02-14 23:32:00,
2013-02-15 00:37:00,38.7,38.1,30.06,NNE,17,0.0,2.0,98,0.00,CLR,CLR,0.00,0.0,WeatherDisplay:10.37,2013-02-14 23:37:00,
2013-02-15 00:42:00,38.7,38.1,30.06,NNE,13,1.0,3.0,98,0.00,CLR,CLR,0.00,0.0,WeatherDisplay:10.37,2013-02-14 23:42:00,
2013-02-15 00:47:00,38.5,38.0,30.06,NNE,20,2.0,3.0,98,0.00,CLR,CLR,0.00,0.0,WeatherDisplay:10.37,2013-02-14 23:47:00,
2013-02-15 00:52:00,38.5,38.0,30.06,NNE,22,0.0,2.0,98,0.00,CLR,CLR,0.00,0.0,WeatherDisplay:10.37,2013-02-14 23:52:00,
2013-02-15 01:02:00,38.5,38.0,30.06,NNE,22,0.0,2.0,98,0.00,CLR,CLR,0.00,0.0,WeatherDisplay:10.37,2013-02-15 00:02:00,
2013-02-15 01:07:00,38.5,38.0,30.06,NNE,22,0.0,2.0,98,0.00,CLR,CLR,0.00,0.0,WeatherDisplay:10.37,2013-02-15 00:07:00,
2013-02-15 01:12:00,38.3,37.8,30.06,NNE,22,0.0,0.0,98,0.00,CLR,CLR,0.00,0.0,WeatherDisplay:10.37,2013-02-15 00:12:00,
2013-02-15 01:17:00,38.3,37.8,30.06,NNE,22,0.0,0.0,98,0.00,CLR,CLR,0.00,0.0,WeatherDisplay:10.37,2013-02-15 00:17:00,
2013-02-15 01:22:00,38.3,37.8,30.06,NE,36,0.0,1.0,98,0.00,CLR,CLR,0.00,0.0,WeatherDisplay:10.37,2013-02-15 00:22:00,
2013-02-15 01:32:00,38.3,37.8,30.06,NNE,30,0.0,2.0,98,0.00,CLR,CLR,0.00,0.0,WeatherDisplay:10.37,2013-02-15 00:32:00,
2013-02-15 01:37:00,38.1,37.6,30.06,NE,55,0.0,1.0,98,0.00,CLR,CLR,0.00,0.0,WeatherDisplay:10.37,2013-02-15 00:37:00,
2013-02-15 01:42:00,38.1,37.6,30.06,NE,47,0.0,1.0,98,0.00,CLR,CLR,0.00,0.0,WeatherDisplay:10.37,2013-02-15 00:42:00,
2013-02-15 01:52:00,38.1,37.6,30.06,NNE,30,0.0,0.0,98,0.00,CLR,CLR,0.00,0.0,WeatherDisplay:10.37,2013-02-15 00:52:00,
2013-02-15 01:57:00,37.9,37.4,30.06,NE,37,0.0,0.0,98,0.00,CLR,CLR,0.00,0.0,WeatherDisplay:10.37,2013-02-15 00:57:00,
2013-02-15 02:02:00,37.9,37.4,30.06,NE,35,0.0,0.0,98,0.00,CLR,CLR,0.00,0.0,WeatherDisplay:10.37,2013-02-15 01:02:00,
2013-02-15 02:07:00,37.9,37.4,30.06,NNE,22,0.0,0.0,98,0.00,CLR,CLR,0.00,0.0,WeatherDisplay:10.37,2013-02-15 01:07:00,
2013-02-15 02:12:00,37.9,37.4,30.06,NNE,22,0.0,0.0,98,0.00,CLR,CLR,0.00,0.0,WeatherDisplay:10.37,2013-02-15 01:12:00,
2013-02-15 02:22:00,37.9,37.4,30.03,NNE,22,0.0,0.0,98,0.00,CLR,CLR,0.00,0.0,WeatherDisplay:10.37,2013-02-15 01:22:00,
2013-02-15 02:32:00,37.8,37.2,30.03,NNE,22,0.0,0.0,98,0.00,CLR,CLR,0.00,0.0,WeatherDisplay:10.37,2013-02-15 01:32:00,
2013-02-15 02:37:00,37.8,37.2,30.03,NNE,22,0.0,0.0,98,0.00,CLR,CLR,0.00,0.0,WeatherDisplay:10.37,2013-02-15 01:37:00,
2013-02-15 02:42:00,37.8,37.2,30.03,NNE,22,0.0,0.0,98,0.00,CLR,CLR,0.00,0.0,WeatherDisplay:10.37,2013-02-15 01:42:00,
2013-02-15 02:52:00,37.8,37.2,30.03,NNE,22,0.0,0.0,98,0.00,CLR,CLR,0.00,0.0,WeatherDisplay:10.37,2013-02-15 01:52:00,
2013-02-15 02:57:00,37.8,37.2,30.03,NNE,22,0.0,0.0,98,0.00,CLR,CLR,0.00,0.0,WeatherDisplay:10.37,2013-02-15 01:57:00,
2013-02-15 03:02:00,37.8,37.2,30.03,NNE,22,0.0,2.0,98,0.00,CLR,CLR,0.00,0.0,WeatherDisplay:10.37,2013-02-15 02:02:00,
2013-02-15 03:12:00,37.8,37.2,30.03,NNW,340,0.0,2.0,98,0.00,CLR,CLR,0.00,0.0,WeatherDisplay:10.37,2013-02-15 02:12:00,
2013-02-15 03:17:00,37.8,37.2,30.03,North,1,0.0,3.0,98,0.00,CLR,CLR,0.00,0.0,WeatherDisplay:10.37,2013-02-15 02:17:00,
2013-02-15 03:22:00,37.8,37.2,30.03,North,1,0.0,3.0,98,0.00,CLR,CLR,0.00,0.0,WeatherDisplay:10.37,2013-02-15 02:22:00,
2013-02-15 03:32:00,37.8,37.2,30.03,North,353,0.0,2.0,98,0.00,CLR,CLR,0.00,0.0,WeatherDisplay:10.37,2013-02-15 02:32:00,
2013-02-15 03:37:00,37.8,37.2,30.03,North,0,0.0,0.0,98,0.00,CLR,CLR,0.00,0.0,WeatherDisplay:10.37,2013-02-15 02:37:00,
2013-02-15 03:42:00,37.8,37.2,30.03,North,4,0.0,3.0,98,0.00,CLR,CLR,0.00,0.0,WeatherDisplay:10.37,2013-02-15 02:42:00,
2013-02-15 03:52:00,37.8,37.2,30.03,North,4,1.0,3.0,98,0.00,CLR,CLR,0.00,0.0,WeatherDisplay:10.37,2013-02-15 02:52:00,
2013-02-15 04:02:00,37.6,37.1,30.00,North,11,0.0,1.0,98,0.00,CLR,CLR,0.00,0.0,WeatherDisplay:10.37,2013-02-15 03:02:00,
2013-02-15 04:12:00,37.6,37.1,30.00,NNE,22,0.0,1.0,98,0.00,CLR,CLR,0.00,0.0,WeatherDisplay:10.37,2013-02-15 03:12:00,
2013-02-15 04:22:00,37.6,37.1,30.00,NNE,14,0.0,2.0,98,0.00,CLR,CLR,0.00,0.0,WeatherDisplay:10.37,2013-02-15 03:22:00,
2013-02-15 04:27:00,37.6,37.1,30.00,North,11,0.0,2.0,98,0.00,CLR,CLR,0.00,0.0,WeatherDisplay:10.37,2013-02-15 03:27:00,
2013-02-15 04:32:00,37.6,37.1,30.03,North,5,2.0,3.0,98,0.00,CLR,CLR,0.00,0.0,WeatherDisplay:10.37,2013-02-15 03:32:00,
2013-02-15 04:42:00,37.6,37.1,30.03,NNW,330,0.0,3.0,98,0.00,CLR,CLR,0.00,0.0,WeatherDisplay:10.37,2013-02-15 03:42:00,
2013-02-15 04:47:00,37.6,37.1,30.03,NNW,335,0.0,2.0,98,0.00,CLR,CLR,0.00,0.0,WeatherDisplay:10.37,2013-02-15 03:47:00,
2013-02-15 04:52:00,37.6,37.1,30.03,NNW,339,1.0,2.0,98,0.00,CLR,CLR,0.00,0.0,WeatherDisplay:10.37,2013-02-15 03:52:00,
2013-02-15 04:57:00,37.6,37.1,30.03,NW,324,0.0,3.0,98,0.00,CLR,CLR,0.00,0.0,WeatherDisplay:10.37,2013-02-15 03:57:00,
2013-02-15 05:02:00,37.6,37.1,30.00,NNW,346,0.0,2.0,98,0.00,CLR,CLR,0.00,0.0,WeatherDisplay:10.37,2013-02-15 04:02:00,
2013-02-15 05:07:00,37.6,37.1,30.00,NNE,13,0.0,0.0,98,0.00,CLR,CLR,0.00,0.0,WeatherDisplay:10.37,2013-02-15 04:07:00,
2013-02-15 05:12:00,37.6,37.1,30.00,NNE,14,0.0,0.0,98,0.00,CLR,CLR,0.00,0.0,WeatherDisplay:10.37,2013-02-15 04:12:00,
2013-02-15 05:17:00,37.6,37.1,30.03,North,7,0.0,1.0,98,0.00,CLR,CLR,0.00,0.0,WeatherDisplay:10.37,2013-02-15 04:17:00,
2013-02-15 05:22:00,37.6,37.1,30.03,North,356,0.0,1.0,98,0.00,CLR,CLR,0.00,0.0,WeatherDisplay:10.37,2013-02-15 04:22:00,
2013-02-15 05:27:00,37.6,37.1,30.03,North,357,0.0,0.0,98,0.00,CLR,CLR,0.00,0.0,WeatherDisplay:10.37,2013-02-15 04:27:00,
2013-02-15 05:32:00,37.6,37.1,30.03,NNE,32,0.0,0.0,98,0.00,CLR,CLR,0.00,0.0,WeatherDisplay:10.37,2013-02-15 04:32:00,
2013-02-15 05:37:00,37.6,37.1,30.03,NE,43,0.0,0.0,98,0.00,CLR,CLR,0.00,0.0,WeatherDisplay:10.37,2013-02-15 04:37:00,
2013-02-15 05:42:00,37.6,37.1,30.03,NNE,23,0.0,0.0,98,0.00,CLR,CLR,0.00,0.0,WeatherDisplay:10.37,2013-02-15 04:42:00,
2013-02-15 05:47:00,37.6,37.1,30.03,NNE,22,0.0,0.0,98,0.00,CLR,CLR,0.00,0.0,WeatherDisplay:10.37,2013-02-15 04:47:00,
2013-02-15 05:52:00,37.6,37.1,30.03,NNE,22,0.0,1.0,98,0.00,CLR,CLR,0.00,0.0,WeatherDisplay:10.37,2013-02-15 04:52:00,
2013-02-15 05:57:00,37.6,37.1,30.03,NNE,22,0.0,0.0,98,0.00,CLR,CLR,0.00,0.0,WeatherDisplay:10.37,2013-02-15 04:57:00,
2013-02-15 06:02:00,37.6,37.1,30.03,NNE,22,0.0,0.0,98,0.00,CLR,CLR,0.00,0.0,WeatherDisplay:10.37,2013-02-15 05:02:00,
2013-02-15 06:07:00,37.6,37.1,30.03,NNE,25,0.0,1.0,98,0.00,CLR,CLR,0.00,0.0,WeatherDisplay:10.37,2013-02-15 05:07:00,
2013-02-15 06:12:00,37.6,37.1,30.03,NNE,33,0.0,1.0,98,0.00,CLR,CLR,0.00,0.0,WeatherDisplay:10.37,2013-02-15 05:12:00,
2013-02-15 06:17:00,37.6,37.1,30.03,NNE,27,0.0,1.0,98,0.00,OVC,OVC,0.00,0.0,WeatherDisplay:10.37,2013-02-15 05:17:00,
2013-02-15 06:22:00,37.6,37.1,30.03,NE,41,0.0,1.0,98,0.00,OVC,OVC,0.00,0.0,WeatherDisplay:10.37,2013-02-15 05:22:00,
2013-02-15 06:27:00,37.4,36.9,30.03,ENE,60,0.0,0.0,98,0.00,OVC,OVC,0.00,0.0,WeatherDisplay:10.37,2013-02-15 05:27:00,
2013-02-15 06:32:00,37.4,36.9,30.03,ENE,58,0.0,0.0,98,0.00,OVC,OVC,0.00,0.0,WeatherDisplay:10.37,2013-02-15 05:32:00,
2013-02-15 06:37:00,37.4,36.9,30.03,NE,40,0.0,0.0,98,0.00,OVC,OVC,0.00,0.0,WeatherDisplay:10.37,2013-02-15 05:37:00,
2013-02-15 06:42:00,37.4,36.9,30.03,NE,34,0.0,1.0,98,0.00,OVC,OVC,0.00,0.0,WeatherDisplay:10.37,2013-02-15 05:42:00,
2013-02-15 06:47:00,37.4,36.9,30.03,NNE,30,0.0,2.0,98,0.00,OVC,OVC,0.00,0.0,WeatherDisplay:10.37,2013-02-15 05:47:00,
2013-02-15 06:52:00,37.4,36.9,30.03,NNE,23,0.0,2.0,98,0.00,OVC,OVC,0.00,0.0,WeatherDisplay:10.37,2013-02-15 05:52:00,
2013-02-15 06:57:00,37.4,36.9,30.03,NNE,26,0.0,1.0,98,0.00,OVC,OVC,0.00,0.0,WeatherDisplay:10.37,2013-02-15 05:57:00,
2013-02-15 07:02:00,37.4,36.9,30.03,NNE,27,0.0,2.0,98,0.00,OVC,OVC,0.00,0.0,WeatherDisplay:10.37,2013-02-15 06:02:00,
2013-02-15 07:07:00,37.4,36.9,30.03,NNE,23,0.0,2.0,98,0.00,OVC,OVC,0.00,0.0,WeatherDisplay:10.37,2013-02-15 06:07:00,
2013-02-15 07:12:00,37.2,36.7,30.03,NNE,23,1.0,2.0,98,0.00,OVC,OVC,0.00,0.0,WeatherDisplay:10.37,2013-02-15 06:12:00,
2013-02-15 07:17:00,37.2,36.7,30.03,NNE,22,1.0,2.0,98,0.00,OVC,OVC,0.00,0.0,WeatherDisplay:10.37,2013-02-15 06:17:00,
2013-02-15 07:22:00,37.2,36.7,30.03,NNE,22,0.0,2.0,98,0.00,OVC,OVC,0.00,0.0,WeatherDisplay:10.37,2013-02-15 06:22:00,
2013-02-15 07:27:00,37.2,36.7,30.03,NNE,22,1.0,3.0,98,0.00,OVC,OVC,0.00,0.0,WeatherDisplay:10.37,2013-02-15 06:27:00,
2013-02-15 07:32:00,37.2,36.7,30.03,NNE,22,0.0,0.0,98,0.00,OVC,OVC,0.00,0.0,WeatherDisplay:10.37,2013-02-15 06:32:00,
2013-02-15 07:37:00,37.2,36.7,30.03,NNE,22,0.0,0.0,98,0.00,OVC,OVC,0.00,0.0,WeatherDisplay:10.37,2013-02-15 06:37:00,
2013-02-15 07:42:00,37.2,36.7,30.03,NNE,22,0.0,0.0,98,0.00,OVC,OVC,0.00,0.0,WeatherDisplay:10.37,2013-02-15 06:42:00,
2013-02-15 07:47:00,37.2,36.7,30.03,NNE,22,0.0,0.0,98,0.00,OVC,OVC,0.00,0.0,WeatherDisplay:10.37,2013-02-15 06:47:00,
2013-02-15 07:52:00,37.2,36.7,30.03,North,11,0.0,0.0,98,0.00,OVC,OVC,0.00,0.0,WeatherDisplay:10.37,2013-02-15 06:52:00,
2013-02-15 07:57:00,37.2,36.7,30.03,North,0,0.0,0.0,98,0.00,OVC,OVC,0.00,0.0,WeatherDisplay:10.37,2013-02-15 06:57:00,
2013-02-15 08:02:00,37.2,36.7,30.03,North,0,0.0,0.0,98,0.00,OVC,OVC,0.00,0.0,WeatherDisplay:10.37,2013-02-15 07:02:00,
2013-02-15 08:07:00,37.4,36.9,30.03,North,1,0.0,2.0,98,0.00,OVC,OVC,0.00,0.0,WeatherDisplay:10.37,2013-02-15 07:07:00,
2013-02-15 08:12:00,37.4,36.9,30.03,North,356,1.0,3.0,98,0.00,OVC,OVC,0.00,0.0,WeatherDisplay:10.37,2013-02-15 07:12:00,
2013-02-15 08:17:00,37.4,36.9,30.03,North,1,0.0,3.0,98,0.00,OVC,OVC,0.00,0.0,WeatherDisplay:10.37,2013-02-15 07:17:00,
2013-02-15 08:22:00,37.4,36.9,30.03,North,6,0.0,2.0,98,0.00,OVC,OVC,0.00,0.0,WeatherDisplay:10.37,2013-02-15 07:22:00,
2013-02-15 08:32:00,37.6,37.1,30.03,NNE,20,0.0,0.0,98,0.00,OVC,OVC,0.00,0.0,WeatherDisplay:10.37,2013-02-15 07:32:00,
2013-02-15 08:42:00,37.6,37.1,30.03,NNE,22,0.0,0.0,98,0.00,OVC,OVC,0.00,0.0,WeatherDisplay:10.37,2013-02-15 07:42:00,
2013-02-15 08:52:00,37.8,37.2,30.03,NNE,22,0.0,0.0,98,0.00,OVC,OVC,0.00,0.0,WeatherDisplay:10.37,2013-02-15 07:52:00,
2013-02-15 09:02:00,37.9,37.4,30.03,NNE,22,0.0,0.0,98,0.00,OVC,OVC,0.00,0.0,WeatherDisplay:10.37,2013-02-15 08:02:00,
2013-02-15 09:07:00,38.1,37.6,30.03,NNE,22,0.0,0.0,98,0.00,OVC,OVC,0.00,0.0,WeatherDisplay:10.37,2013-02-15 08:07:00,
2013-02-15 09:17:00,38.1,37.6,30.03,NNE,22,0.0,0.0,98,0.00,OVC,OVC,0.00,0.0,WeatherDisplay:10.37,2013-02-15 08:17:00,
2013-02-15 09:22:00,38.3,37.8,30.03,NNE,26,0.0,1.0,98,0.00,OVC,OVC,0.00,0.0,WeatherDisplay:10.37,2013-02-15 08:22:00,
2013-02-15 09:32:00,38.5,38.0,30.03,NNE,22,0.0,0.0,98,0.00,OVC,OVC,0.00,0.0,WeatherDisplay:10.37,2013-02-15 08:32:00,
2013-02-15 09:37:00,38.5,38.0,30.03,NNE,22,0.0,0.0,98,0.00,OVC,OVC,0.00,0.0,WeatherDisplay:10.37,2013-02-15 08:37:00,
2013-02-15 09:47:00,38.5,38.0,30.03,NNE,18,1.0,3.0,98,0.00,OVC,OVC,0.00,0.0,WeatherDisplay:10.37,2013-02-15 08:47:00,
2013-02-15 09:52:00,38.7,38.1,30.03,NNE,12,0.0,2.0,98,0.00,OVC,OVC,0.00,0.0,WeatherDisplay:10.37,2013-02-15 08:52:00,
2013-02-15 09:57:00,38.8,38.2,30.03,NE,42,0.0,1.0,98,0.00,OVC,OVC,0.00,0.0,WeatherDisplay:10.37,2013-02-15 08:57:00,
2013-02-15 10:02:00,38.8,38.3,30.03,NE,43,0.0,0.0,98,0.00,OVC,OVC,0.00,0.0,WeatherDisplay:10.37,2013-02-15 09:02:00,
2013-02-15 10:12:00,39.0,38.5,30.03,NNE,22,0.0,0.0,98,0.00,OVC,OVC,0.00,0.0,WeatherDisplay:10.37,2013-02-15 09:12:00,
2013-02-15 10:17:00,39.2,38.7,30.03,NNE,15,0.0,1.0,98,0.00,OVC,OVC,0.00,0.0,WeatherDisplay:10.37,2013-02-15 09:17:00,
2013-02-15 10:22:00,39.3,38.8,30.03,North,358,0.0,2.0,98,0.00,OVC,OVC,0.00,0.0,WeatherDisplay:10.37,2013-02-15 09:22:00,
2013-02-15 10:32:00,39.6,39.1,30.03,NNE,23,0.0,0.0,98,0.00,OVC,OVC,0.00,0.0,WeatherDisplay:10.37,2013-02-15 09:32:00,
2013-02-15 10:37:00,39.7,39.2,30.03,NNE,22,0.0,0.0,98,0.00,OVC,OVC,0.00,0.0,WeatherDisplay:10.37,2013-02-15 09:37:00,
2013-02-15 10:47:00,40.2,39.6,30.05,NNE,18,0.0,0.0,98,0.00,OVC,OVC,0.00,0.0,WeatherDisplay:10.37,2013-02-15 09:47:00,
2013-02-15 10:52:00,40.4,39.9,30.06,NNW,345,0.0,0.0,98,0.00,OVC,OVC,0.00,0.0,WeatherDisplay:10.37,2013-02-15 09:52:00,
2013-02-15 10:57:00,40.5,40.0,30.06,NW,307,0.0,2.0,98,0.00,OVC,OVC,0.00,0.0,WeatherDisplay:10.37,2013-02-15 09:57:00,
2013-02-15 11:07:00,41.0,40.5,30.06,WNW,292,0.0,0.0,98,0.00,OVC,OVC,0.00,0.0,WeatherDisplay:10.37,2013-02-15 10:07:00,
2013-02-15 11:12:00,41.2,40.6,30.06,West,268,0.0,3.0,98,0.00,OVC,OVC,0.00,0.0,WeatherDisplay:10.37,2013-02-15 10:12:00,
2013-02-15 11:22:00,41.7,41.1,30.06,NNW,332,1.0,4.0,98,0.00,OVC,OVC,0.00,0.0,WeatherDisplay:10.37,2013-02-15 10:22:00,
2013-02-15 11:32:00,42.1,41.6,30.06,NNW,328,1.0,3.0,98,0.00,OVC,OVC,0.00,0.0,WeatherDisplay:10.37,2013-02-15 10:32:00,
2013-02-15 11:42:00,42.5,42.0,30.06,WNW,302,1.0,4.0,98,0.00,OVC,OVC,0.00,0.0,WeatherDisplay:10.37,2013-02-15 10:42:00,
2013-02-15 11:47:00,42.8,42.0,30.05,WNW,298,1.0,3.0,97,0.00,OVC,OVC,0.00,0.0,WeatherDisplay:10.37,2013-02-15 10:47:00,
2013-02-15 11:52:00,43.0,42.2,30.03,NW,326,2.0,4.0,97,0.00,OVC,OVC,0.00,0.0,WeatherDisplay:10.37,2013-02-15 10:52:00,
2013-02-15 11:57:00,43.2,42.4,30.03,NNW,343,2.0,5.0,97,0.00,OVC,OVC,0.00,0.0,WeatherDisplay:10.37,2013-02-15 10:57:00,
2013-02-15 12:02:00,43.3,42.3,30.03,NNW,330,2.0,5.0,96,0.00,OVC,OVC,0.00,0.0,WeatherDisplay:10.37,2013-02-15 11:02:00,
2013-02-15 12:12:00,43.7,42.7,30.03,NW,319,3.0,6.0,96,0.00,OVC,OVC,0.00,0.0,WeatherDisplay:10.37,2013-02-15 11:12:00,
2013-02-15 12:17:00,44.1,42.7,30.03,NNW,346,5.0,6.0,95,0.00,OVC,OVC,0.00,0.0,WeatherDisplay:10.37,2013-02-15 11:17:00,
2013-02-15 12:27:00,44.3,43.0,30.03,North,2,3.0,5.0,95,0.00,OVC,OVC,0.00,0.0,WeatherDisplay:10.37,2013-02-15 11:27:00,
2013-02-15 12:32:00,44.6,43.0,30.03,North,1,5.0,6.0,94,0.00,OVC,OVC,0.00,0.0,WeatherDisplay:10.37,2013-02-15 11:32:00,
2013-02-15 12:42:00,45.0,43.1,30.03,North,5,3.0,6.0,93,0.00,OVC,OVC,0.00,0.0,WeatherDisplay:10.37,2013-02-15 11:42:00,
2013-02-15 12:47:00,45.2,43.0,30.03,North,7,3.0,5.0,92,0.00,OVC,OVC,0.00,0.0,WeatherDisplay:10.37,2013-02-15 11:47:00,
2013-02-15 12:52:00,45.3,42.8,30.03,North,3,2.0,5.0,91,0.00,OVC,OVC,0.00,0.0,WeatherDisplay:10.37,2013-02-15 11:52:00,
2013-02-15 12:57:00,45.4,42.9,30.03,North,9,3.0,5.0,91,0.00,OVC,OVC,0.00,0.0,WeatherDisplay:10.37,2013-02-15 11:57:00,
2013-02-15 13:07:00,45.5,42.5,30.03,NNW,338,1.0,5.0,89,0.00,OVC,OVC,0.00,0.0,WeatherDisplay:10.37,2013-02-15 12:07:00,
2013-02-15 13:12:00,45.7,42.4,30.03,NNW,331,2.0,4.0,88,0.00,OVC,OVC,0.00,0.0,WeatherDisplay:10.37,2013-02-15 12:12:00,
2013-02-15 13:22:00,45.9,41.9,30.03,North,359,3.0,6.0,86,0.00,OVC,OVC,0.00,0.0,WeatherDisplay:10.37,2013-02-15 12:22:00,
2013-02-15 13:32:00,46.0,41.8,30.03,NW,326,1.0,3.0,85,0.00,OVC,OVC,0.00,0.0,WeatherDisplay:10.37,2013-02-15 12:32:00,
2013-02-15 13:42:00,46.4,41.5,30.03,WNW,287,2.0,4.0,83,0.00,OVC,OVC,0.00,0.0,WeatherDisplay:10.37,2013-02-15 12:42:00,
2013-02-15 13:52:00,46.6,41.1,30.03,WNW,300,0.0,2.0,81,0.00,OVC,OVC,0.00,0.0,WeatherDisplay:10.37,2013-02-15 12:52:00,
2013-02-15 13:57:00,46.6,40.7,30.03,North,10,0.0,2.0,80,0.00,OVC,OVC,0.00,0.0,WeatherDisplay:10.37,2013-02-15 12:57:00,
2013-02-15 14:07:00,46.6,40.4,30.03,WNW,298,2.0,5.0,79,0.00,OVC,OVC,0.00,0.0,WeatherDisplay:10.37,2013-02-15 13:07:00,
2013-02-15 14:12:00,46.6,40.1,30.03,WNW,282,0.0,5.0,78,0.00,OVC,OVC,0.00,0.0,WeatherDisplay:10.37,2013-02-15 13:12:00,
2013-02-15 14:22:00,46.6,39.8,30.03,WNW,291,2.0,5.0,77,0.00,OVC,OVC,0.00,0.0,WeatherDisplay:10.37,2013-02-15 13:22:00,
2013-02-15 14:32:00,46.5,39.4,30.03,NNW,336,3.0,5.0,76,0.00,OVC,OVC,0.00,0.0,WeatherDisplay:10.37,2013-02-15 13:32:00,
2013-02-15 14:42:00,46.4,38.9,30.03,NW,314,3.0,5.0,75,0.00,OVC,OVC,0.00,0.0,WeatherDisplay:10.37,2013-02-15 13:42:00,
2013-02-15 14:52:00,46.2,38.7,30.03,NW,315,2.0,3.0,75,0.00,OVC,OVC,0.00,0.0,WeatherDisplay:10.37,2013-02-15 13:52:00,
2013-02-15 14:57:00,46.2,38.7,30.03,NW,309,2.0,5.0,75,0.00,OVC,OVC,0.00,0.0,WeatherDisplay:10.37,2013-02-15 13:57:00,
2013-02-15 15:02:00,46.2,38.7,30.03,WNW,290,2.0,5.0,75,0.00,OVC,OVC,0.00,0.0,WeatherDisplay:10.37,2013-02-15 14:02:00,
2013-02-15 15:07:00,46.2,38.7,30.03,WNW,289,1.0,4.0,75,0.00,OVC,OVC,0.00,0.0,WeatherDisplay:10.37,2013-02-15 14:07:00,
2013-02-15 15:17:00,46.2,38.7,30.03,WNW,300,3.0,5.0,75,0.00,OVC,OVC,0.00,0.0,WeatherDisplay:10.37,2013-02-15 14:17:00,
2013-02-15 15:22:00,46.2,38.7,30.03,West,279,3.0,6.0,75,0.00,OVC,OVC,0.00,0.0,WeatherDisplay:10.37,2013-02-15 14:22:00,
2013-02-15 15:32:00,46.4,38.6,30.03,WNW,302,3.0,5.0,74,0.00,OVC,OVC,0.00,0.0,WeatherDisplay:10.37,2013-02-15 14:32:00,
2013-02-15 15:37:00,46.4,38.6,30.03,NW,316,3.0,5.0,74,0.00,OVC,OVC,0.00,0.0,WeatherDisplay:10.37,2013-02-15 14:37:00,
2013-02-15 15:42:00,46.2,38.4,30.03,NW,320,3.0,5.0,74,0.00,OVC,OVC,0.00,0.0,WeatherDisplay:10.37,2013-02-15 14:42:00,
2013-02-15 15:52:00,46.2,38.4,30.03,NNW,340,3.0,5.0,74,0.00,OVC,OVC,0.00,0.0,WeatherDisplay:10.37,2013-02-15 14:52:00,
2013-02-15 16:02:00,46.0,37.9,30.02,NW,321,2.0,5.0,73,0.00,OVC,OVC,0.00,0.0,WeatherDisplay:10.37,2013-02-15 15:02:00,
2013-02-15 16:12:00,46.0,37.9,30.00,NW,321,3.0,5.0,73,0.00,OVC,OVC,0.00,0.0,WeatherDisplay:10.37,2013-02-15 15:12:00,
2013-02-15 16:17:00,46.0,37.9,30.02,NW,304,2.0,5.0,73,0.00,OVC,OVC,0.00,0.0,WeatherDisplay:10.37,2013-02-15 15:17:00,
2013-02-15 16:22:00,45.9,37.7,30.03,NW,308,2.0,5.0,73,0.00,OVC,OVC,0.00,0.0,WeatherDisplay:10.37,2013-02-15 15:22:00,
2013-02-15 16:32:00,45.9,38.0,30.03,NW,319,2.0,4.0,74,0.00,OVC,OVC,0.00,0.0,WeatherDisplay:10.37,2013-02-15 15:32:00,
2013-02-15 16:42:00,45.7,37.9,30.03,NNW,334,2.0,3.0,74,0.00,OVC,OVC,0.00,0.0,WeatherDisplay:10.37,2013-02-15 15:42:00,
2013-02-15 16:52:00,45.6,37.8,30.03,NW,323,1.0,3.0,74,0.00,OVC,OVC,0.00,0.0,WeatherDisplay:10.37,2013-02-15 15:52:00,
2013-02-15 16:57:00,45.5,37.7,30.03,NNW,331,0.0,2.0,74,0.00,OVC,OVC,0.00,0.0,WeatherDisplay:10.37,2013-02-15 15:57:00,
2013-02-15 17:02:00,45.5,37.7,30.03,NW,314,2.0,4.0,74,0.00,OVC,OVC,0.00,0.0,WeatherDisplay:10.37,2013-02-15 16:02:00,
2013-02-15 17:07:00,45.5,37.7,30.03,WNW,293,2.0,4.0,74,0.00,OVC,OVC,0.00,0.0,WeatherDisplay:10.37,2013-02-15 16:07:00,
2013-02-15 17:12:00,45.4,37.6,30.03,WNW,291,3.0,5.0,74,0.00,OVC,OVC,0.00,0.0,WeatherDisplay:10.37,2013-02-15 16:12:00,
2013-02-15 17:17:00,45.3,37.9,30.05,WNW,289,2.0,5.0,75,0.00,OVC,OVC,0.00,0.0,WeatherDisplay:10.37,2013-02-15 16:17:00,
2013-02-15 17:22:00,45.3,37.9,30.06,WNW,288,2.0,5.0,75,0.00,OVC,OVC,0.00,0.0,WeatherDisplay:10.37,2013-02-15 16:22:00,
2013-02-15 17:32:00,45.1,37.7,30.06,WNW,293,2.0,5.0,75,0.00,OVC,OVC,0.00,0.0,WeatherDisplay:10.37,2013-02-15 16:32:00,
2013-02-15 17:37:00,45.1,37.7,30.06,WNW,293,2.0,5.0,75,0.00,CLR,CLR,0.00,0.0,WeatherDisplay:10.37,2013-02-15 16:37:00,
2013-02-15 17:42:00,45.1,38.0,30.06,WNW,297,3.0,5.0,76,0.00,CLR,CLR,0.00,0.0,WeatherDisplay:10.37,2013-02-15 16:42:00,
2013-02-15 17:52:00,45.0,37.8,30.06,WNW,295,3.0,5.0,76,0.00,CLR,CLR,0.00,0.0,WeatherDisplay:10.37,2013-02-15 16:52:00,
2013-02-15 17:57:00,44.8,37.7,30.06,WNW,293,3.0,5.0,76,0.00,CLR,CLR,0.00,0.0,WeatherDisplay:10.37,2013-02-15 16:57:00,
2013-02-15 18:02:00,44.8,37.7,30.06,WNW,292,3.0,6.0,76,0.00,CLR,CLR,0.00,0.0,WeatherDisplay:10.37,2013-02-15 17:02:00,
2013-02-15 18:12:00,44.6,37.5,30.06,West,281,3.0,5.0,76,0.00,CLR,CLR,0.00,0.0,WeatherDisplay:10.37,2013-02-15 17:12:00,
2013-02-15 18:17:00,44.6,37.8,30.08,WNW,285,3.0,5.0,77,0.00,CLR,CLR,0.00,0.0,WeatherDisplay:10.37,2013-02-15 17:17:00,
2013-02-15 18:22:00,44.4,37.7,30.09,WNW,289,3.0,4.0,77,0.00,CLR,CLR,0.00,0.0,WeatherDisplay:10.37,2013-02-15 17:22:00,
2013-02-15 18:32:00,44.2,37.5,30.09,WNW,286,2.0,5.0,77,0.00,CLR,CLR,0.00,0.0,WeatherDisplay:10.37,2013-02-15 17:32:00,
2013-02-15 18:37:00,44.2,37.4,30.09,WNW,287,3.0,4.0,77,0.00,CLR,CLR,0.00,0.0,WeatherDisplay:10.37,2013-02-15 17:37:00,
2013-02-15 18:42:00,44.1,37.6,30.09,WNW,287,2.0,3.0,78,0.00,CLR,CLR,0.00,0.0,WeatherDisplay:10.37,2013-02-15 17:42:00,
2013-02-15 18:52:00,43.7,37.3,30.09,WNW,290,2.0,4.0,78,0.00,CLR,CLR,0.00,0.0,WeatherDisplay:10.37,2013-02-15 17:52:00,
2013-02-15 18:57:00,43.7,37.3,30.09,West,279,2.0,4.0,78,0.00,CLR,CLR,0.00,0.0,WeatherDisplay:10.37,2013-02-15 17:57:00,
2013-02-15 19:07:00,43.5,37.4,30.09,West,279,2.0,3.0,79,0.00,CLR,CLR,0.00,0.0,WeatherDisplay:10.37,2013-02-15 18:07:00,
2013-02-15 19:12:00,43.3,37.3,30.09,WNW,289,3.0,5.0,79,0.00,CLR,CLR,0.00,0.0,WeatherDisplay:10.37,2013-02-15 18:12:00,
2013-02-15 19:22:00,43.2,37.1,30.09,WNW,287,2.0,4.0,79,0.00,CLR,CLR,0.00,0.0,WeatherDisplay:10.37,2013-02-15 18:22:00,
2013-02-15 19:27:00,43.2,37.4,30.09,WNW,288,2.0,4.0,80,0.00,CLR,CLR,0.00,0.0,WeatherDisplay:10.37,2013-02-15 18:27:00,
2013-02-15 19:32:00,43.0,37.2,30.09,WNW,290,3.0,4.0,80,0.00,CLR,CLR,0.00,0.0,WeatherDisplay:10.37,2013-02-15 18:32:00,
2013-02-15 19:37:00,43.0,37.2,30.09,WNW,292,2.0,4.0,80,0.00,CLR,CLR,0.00,0.0,WeatherDisplay:10.37,2013-02-15 18:37:00,
2013-02-15 19:42:00,43.0,37.2,30.09,WNW,293,3.0,5.0,80,0.00,CLR,CLR,0.00,0.0,WeatherDisplay:10.37,2013-02-15 18:42:00,
2013-02-15 19:52:00,43.0,37.5,30.09,WNW,291,3.0,6.0,81,0.00,CLR,CLR,0.00,0.0,WeatherDisplay:10.37,2013-02-15 18:52:00,
2013-02-15 19:57:00,42.9,37.4,30.09,WNW,296,6.0,7.0,81,0.00,CLR,CLR,0.00,0.0,WeatherDisplay:10.37,2013-02-15 18:57:00,
2013-02-15 20:07:00,42.8,37.4,30.09,WNW,293,5.0,7.0,81,0.00,CLR,CLR,0.00,0.0,WeatherDisplay:10.37,2013-02-15 19:07:00,
2013-02-15 20:17:00,42.6,37.5,30.09,WNW,299,5.0,7.0,82,0.00,CLR,CLR,0.00,0.0,WeatherDisplay:10.37,2013-02-15 19:17:00,
2013-02-15 20:27:00,42.4,37.3,30.09,NW,312,3.0,6.0,82,0.00,CLR,CLR,0.00,0.0,WeatherDisplay:10.37,2013-02-15 19:27:00,
2013-02-15 20:37:00,42.3,37.5,30.09,NW,319,3.0,6.0,83,0.00,CLR,CLR,0.00,0.0,WeatherDisplay:10.37,2013-02-15 19:37:00,
2013-02-15 20:42:00,42.1,37.3,30.09,NW,313,5.0,6.0,83,0.00,CLR,CLR,0.00,0.0,WeatherDisplay:10.37,2013-02-15 19:42:00,
2013-02-15 20:52:00,41.9,37.1,30.09,NW,313,5.0,8.0,83,0.00,CLR,CLR,0.00,0.0,WeatherDisplay:10.37,2013-02-15 19:52:00,
2013-02-15 20:57:00,41.8,37.0,30.09,NW,325,5.0,6.0,83,0.00,CLR,CLR,0.00,0.0,WeatherDisplay:10.37,2013-02-15 19:57:00,
2013-02-15 21:07:00,41.7,37.2,30.09,NW,304,6.0,9.0,84,0.00,CLR,CLR,0.00,0.0,WeatherDisplay:10.37,2013-02-15 20:07:00,
2013-02-15 21:12:00,41.6,37.1,30.09,NW,306,5.0,8.0,84,0.00,CLR,CLR,0.00,0.0,WeatherDisplay:10.37,2013-02-15 20:12:00,
2013-02-15 21:17:00,41.5,37.1,30.09,NW,318,5.0,8.0,84,0.00,CLR,CLR,0.00,0.0,WeatherDisplay:10.37,2013-02-15 20:17:00,
2013-02-15 21:22:00,41.5,37.1,30.09,NW,321,6.0,6.0,84,0.00,CLR,CLR,0.00,0.0,WeatherDisplay:10.37,2013-02-15 20:22:00,
2013-02-15 21:32:00,41.4,37.2,30.09,NNW,330,5.0,7.0,85,0.00,CLR,CLR,0.00,0.0,WeatherDisplay:10.37,2013-02-15 20:32:00,
2013-02-15 21:37:00,41.3,37.1,30.09,NNW,330,5.0,7.0,85,0.00,CLR,CLR,0.00,0.0,WeatherDisplay:10.37,2013-02-15 20:37:00,
2013-02-15 21:42:00,41.2,37.0,30.09,NW,319,5.0,8.0,85,0.00,CLR,CLR,0.00,0.0,WeatherDisplay:10.37,2013-02-15 20:42:00,
2013-02-15 21:53:00,41.2,37.0,30.09,WNW,297,6.0,9.0,85,0.00,CLR,CLR,0.00,0.0,WeatherDisplay:10.37,2013-02-15 20:53:00,
2013-02-15 22:02:00,41.0,36.8,30.09,WNW,300,5.0,8.0,85,0.00,CLR,CLR,0.00,0.0,WeatherDisplay:10.37,2013-02-15 21:02:00,
2013-02-15 22:12:00,41.0,36.8,30.09,NW,306,5.0,8.0,85,0.00,CLR,CLR,0.00,0.0,WeatherDisplay:10.37,2013-02-15 21:12:00,
2013-02-15 22:17:00,40.8,37.0,30.09,NW,313,5.0,6.0,86,0.00,CLR,CLR,0.00,0.0,WeatherDisplay:10.37,2013-02-15 21:17:00,
2013-02-15 22:22:00,40.8,36.9,30.09,NW,321,5.0,6.0,86,0.00,CLR,CLR,0.00,0.0,WeatherDisplay:10.37,2013-02-15 21:22:00,
2013-02-15 22:32:00,40.6,36.8,30.09,NW,307,5.0,6.0,86,0.00,CLR,CLR,0.00,0.0,WeatherDisplay:10.37,2013-02-15 21:32:00,
2013-02-15 22:37:00,40.6,36.8,30.09,NW,308,3.0,8.0,86,0.00,CLR,CLR,0.00,0.0,WeatherDisplay:10.37,2013-02-15 21:37:00,
2013-02-15 22:42:00,40.5,36.6,30.09,NW,306,3.0,7.0,86,0.00,CLR,CLR,0.00,0.0,WeatherDisplay:10.37,2013-02-15 21:42:00,
2013-02-15 22:52:00,40.5,36.6,30.09,WNW,299,5.0,6.0,86,0.00,CLR,CLR,0.00,0.0,WeatherDisplay:10.37,2013-02-15 21:52:00,
2013-02-15 22:57:00,40.5,36.6,30.09,WNW,297,5.0,6.0,86,0.00,CLR,CLR,0.00,0.0,WeatherDisplay:10.37,2013-02-15 21:57:00,
2013-02-15 23:07:00,40.3,36.4,30.09,WNW,290,3.0,6.0,86,0.00,CLR,CLR,0.00,0.0,WeatherDisplay:10.37,2013-02-15 22:07:00,
2013-02-15 23:12:00,40.3,36.4,30.09,WNW,298,5.0,7.0,86,0.00,CLR,CLR,0.00,0.0,WeatherDisplay:10.37,2013-02-15 22:12:00,
2013-02-15 23:17:00,40.2,36.4,30.09,WNW,296,5.0,7.0,86,0.00,CLR,CLR,0.00,0.0,WeatherDisplay:10.37,2013-02-15 22:17:00,
2013-02-15 23:22:00,40.1,36.2,30.09,WNW,299,5.0,8.0,86,0.00,CLR,CLR,0.00,0.0,WeatherDisplay:10.37,2013-02-15 22:22:00,
2013-02-15 23:32:00,40.1,36.2,30.09,WNW,290,6.0,7.0,86,0.00,CLR,CLR,0.00,0.0,WeatherDisplay:10.37,2013-02-15 22:32:00,
2013-02-15 23:37:00,39.9,36.1,30.09,WNW,294,5.0,8.0,86,0.00,CLR,CLR,0.00,0.0,WeatherDisplay:10.37,2013-02-15 22:37:00,
2013-02-15 23:42:00,39.9,36.1,30.09,WNW,297,6.0,10.0,86,0.00,CLR,CLR,0.00,0.0,WeatherDisplay:10.37,2013-02-15 22:42:00,
2013-02-15 23:52:00,39.9,36.1,30.09,WNW,302,6.0,8.0,86,0.00,CLR,CLR,0.00,0.0,WeatherDisplay:10.37,2013-02-15 22:52:00,